Skip Page Navigation
NASA JPL Caltech
NASA Logo - Jet Propulsion Laboratory + View the NASA Portal
+ Near-Earth Object (NEO) Program
Search JPL
JPL Home Earth Solar System Stars & Galaxies Technology
JPL Solar System Dynamics
BODIES ORBITS EPHEMERIDES TOOLS PHYSICAL DATA DISCOVERY FAQ SITE MAP
JPL Small-Body Database Browser
Search: [ help ]  
(2010 DW1)
Classification: Apollo [NEO, PHA]          SPK-ID: 3508156
Ephemeris | Orbit Diagram | Orbital Elements | Physical Parameters | Close-Approach Data ]

[ hide orbit diagram ]
Orbit Diagram
Note: Make sure you have Java enabled on your browser to see the applet. This applet is provided as a 3D orbit visualization tool. The applet was implemented using 2-body methods, and hence should not be used for determining accurate long-term trajectories (over several years or decades) or planetary encounter circumstances. For accurate long-term ephemerides, please instead use our Horizons system.
Orbit Viewer

Additional Notes: the orbits shown in the applet are color coded. The planets are white lines, and the asteroid/comet is a blue line. The bright white line indicates the portion of the orbit that is above the ecliptic plane, and the darker portion is below the ecliptic plane. Likewise for the asteroid/comet orbit, the light blue indicates the portion above the ecliptic plane, and the dark blue the portion below the ecliptic plane.

Orbit Viewer applet originally written and kindly provided by Osamu Ajiki (AstroArts), and further modified by Ron Baalke (JPL).


Orbital Elements at Epoch 2456400.5 (2013-Apr-18.0) TDB
Reference: JPL 26 (heliocentric ecliptic J2000)
 Element Value Uncertainty (1-sigma)   Units 
e .2000353977363668 6.5356e-08  
a 1.224894860469026 1.9359e-08 AU
q .9798725298698726 8.189e-08 AU
i 23.7666778309285 2.8409e-05 deg
node 157.1529045005985 1.7776e-05 deg
peri 9.609445236921232 5.0619e-05 deg
M 113.4018956928307 2.0218e-05 deg
tp 2456244.521600674601
(2012-Nov-13.02160067)
2.9837e-05 JED
period 495.1612441227792
1.36
1.1739e-05
3.214e-08
d
yr
n .7270358984531816 1.7235e-08 deg/d
Q 1.469917191068179 2.3231e-08 AU
  Orbit Determination Parameters
   # obs. used (total)      196  
   data-arc span      2861 days (7.83 yr)  
   first obs. used      2002-08-29  
   last obs. used      2010-06-29  
   planetary ephem.      DE405  
   SB-pert. ephem.      SB405-CPV-2  
   condition code      0  
   fit RMS      .46708  
   data source      ORB  
   producer      Otto Matic  
   solution date      2011-Sep-14 20:50:37  

Additional Information
 Earth MOID = .00816628 AU 
 T_jup = 5.118 
[ show covariance matrix ]

Ephemeris | Orbit Diagram | Orbital Elements | Physical Parameters | Close-Approach Data ]

Physical Parameter Table
Parameter Symbol Value Units Sigma Reference Notes
absolute magnitude H 19.996 mag .55201 26 autocmod 2.5a

[ show close-approach data ]
Ephemeris | Orbit Diagram | Orbital Elements | Physical Parameters | Close-Approach Data ]
ABOUT SSD CREDITS/AWARDS PRIVACY/COPYRIGHT GLOSSARY LINKS
FirstGov 2013-Jun-19 14:13 UT
(server date/time)  
NASA Home Page
Site Manager:   Donald K. Yeomans
Webmaster  Alan B. Chamberlin